Time,TemperatureF,DewpointF,PressureIn,WindDirection,WindDirectionDegrees,WindSpeedMPH,WindSpeedGustMPH,Humidity,HourlyPrecipIn,Conditions,Clouds,dailyrainin,SoftwareType,DateUTC
2013-08-10 00:01:00,58.0,56.0,30.63,WSW,240,3.0,3.0,92,-99.99,,,-99.99,,2013-08-10 07:01:00,
2013-08-10 00:12:00,58.0,56.0,30.63,SW,222,3.0,4.0,92,-99.99,,,-99.99,,2013-08-10 07:12:00,
2013-08-10 00:22:00,58.0,56.0,30.63,WSW,237,2.0,4.0,92,-99.99,,,-99.99,,2013-08-10 07:22:00,
2013-08-10 00:33:00,58.0,56.0,30.63,WSW,237,2.0,4.0,92,-99.99,,,-99.99,,2013-08-10 07:33:00,
2013-08-10 00:43:00,57.0,55.0,30.63,South,188,0.0,5.0,92,-99.99,,,-99.99,,2013-08-10 07:43:00,
2013-08-10 00:52:00,57.0,55.0,30.63,South,188,0.0,5.0,92,-99.99,,,-99.99,,2013-08-10 07:52:00,
2013-08-10 01:01:00,58.0,56.0,30.63,SE,140,1.0,2.0,93,-99.99,,,-99.99,,2013-08-10 08:01:00,
2013-08-10 01:21:00,58.0,56.0,30.63,SE,143,2.0,2.0,94,-99.99,,,-99.99,,2013-08-10 08:21:00,
2013-08-10 01:32:00,57.0,55.0,30.63,SW,215,1.0,2.0,94,-99.99,,,-99.99,,2013-08-10 08:32:00,
2013-08-10 01:43:00,57.0,55.0,30.63,SW,216,3.0,3.0,94,-99.99,,,-99.99,,2013-08-10 08:43:00,
2013-08-10 01:52:00,57.0,55.0,30.63,SW,216,3.0,3.0,94,-99.99,,,-99.99,,2013-08-10 08:52:00,
2013-08-10 02:02:00,57.0,55.0,30.63,SSW,199,0.0,1.0,94,-99.99,,,-99.99,,2013-08-10 09:02:00,
2013-08-10 02:12:00,57.0,55.0,30.63,SSW,199,0.0,1.0,94,-99.99,,,-99.99,,2013-08-10 09:12:00,
2013-08-10 02:32:00,57.0,55.0,30.49,SSW,199,2.0,2.0,94,-99.99,,,-99.99,,2013-08-10 09:32:00,
2013-08-10 02:42:00,57.0,55.0,30.49,SSW,199,2.0,2.0,94,-99.99,,,-99.99,,2013-08-10 09:42:00,
2013-08-10 02:52:00,57.0,55.0,30.49,SSW,199,2.0,2.0,94,-99.99,,,-99.99,,2013-08-10 09:52:00,
2013-08-10 03:01:00,57.0,55.0,30.42,ESE,121,2.0,0.0,94,-99.99,,,-99.99,,2013-08-10 10:01:00,
2013-08-10 03:21:00,57.0,56.0,30.42,ESE,121,0.0,1.0,95,-99.99,,,-99.99,,2013-08-10 10:21:00,
2013-08-10 03:52:00,57.0,56.0,30.41,ESE,121,0.0,0.0,95,-99.99,,,-99.99,,2013-08-10 10:52:00,
2013-08-10 04:02:00,57.0,56.0,30.41,ESE,121,0.0,0.0,95,-99.99,,,-99.99,,2013-08-10 11:02:00,
2013-08-10 04:21:00,57.0,56.0,30.41,ESE,121,0.0,0.0,96,-99.99,,,-99.99,,2013-08-10 11:21:00,
2013-08-10 04:33:00,57.0,56.0,30.41,ESE,121,0.0,0.0,96,-99.99,,,-99.99,,2013-08-10 11:33:00,
2013-08-10 04:43:00,57.0,56.0,30.41,ESE,121,0.0,0.0,96,-99.99,,,-99.99,,2013-08-10 11:43:00,
2013-08-10 05:01:00,57.0,56.0,30.40,ESE,121,0.0,0.0,96,-99.99,,,-99.99,,2013-08-10 12:01:00,
2013-08-10 05:11:00,57.0,56.0,30.40,ESE,121,0.0,0.0,96,-99.99,,,-99.99,,2013-08-10 12:11:00,
2013-08-10 05:21:00,57.0,56.0,30.40,ESE,121,0.0,0.0,96,-99.99,,,-99.99,,2013-08-10 12:21:00,
2013-08-10 05:42:00,57.0,56.0,30.40,ESE,121,0.0,0.0,96,-99.99,,,-99.99,,2013-08-10 12:42:00,
2013-08-10 05:52:00,57.0,56.0,30.40,ESE,121,0.0,0.0,96,-99.99,,,-99.99,,2013-08-10 12:52:00,
2013-08-10 06:01:00,57.0,56.0,30.40,ESE,121,0.0,0.0,96,-99.99,,,-99.99,,2013-08-10 13:01:00,
2013-08-10 06:11:00,57.0,56.0,30.40,ESE,121,0.0,0.0,96,-99.99,,,-99.99,,2013-08-10 13:11:00,
2013-08-10 06:21:00,57.0,56.0,30.40,ESE,121,0.0,0.0,96,-99.99,,,-99.99,,2013-08-10 13:21:00,
2013-08-10 06:32:00,57.0,56.0,30.40,ESE,121,0.0,0.0,96,-99.99,,,-99.99,,2013-08-10 13:32:00,
2013-08-10 06:43:00,57.0,56.0,30.41,ESE,120,1.0,2.0,96,-99.99,,,-99.99,,2013-08-10 13:43:00,
2013-08-10 06:52:00,57.0,56.0,30.41,ESE,120,1.0,2.0,96,-99.99,,,-99.99,,2013-08-10 13:52:00,
2013-08-10 07:02:00,57.0,56.0,30.41,ESE,120,0.0,0.0,96,-99.99,,,-99.99,,2013-08-10 14:02:00,
2013-08-10 07:12:00,57.0,56.0,30.41,ESE,120,0.0,0.0,96,-99.99,,,-99.99,,2013-08-10 14:12:00,
2013-08-10 07:22:00,57.0,56.0,30.41,ESE,120,0.0,0.0,96,-99.99,,,-99.99,,2013-08-10 14:22:00,
2013-08-10 07:32:00,57.0,56.0,30.41,ESE,120,0.0,0.0,96,-99.99,,,-99.99,,2013-08-10 14:32:00,
2013-08-10 07:42:00,57.0,56.0,30.42,ESE,120,0.0,2.0,96,-99.99,,,-99.99,,2013-08-10 14:42:00,
2013-08-10 07:53:00,57.0,56.0,30.42,ESE,120,0.0,2.0,96,-99.99,,,-99.99,,2013-08-10 14:53:00,
2013-08-10 08:02:00,57.0,56.0,30.42,ESE,120,0.0,0.0,96,-99.99,,,-99.99,,2013-08-10 15:02:00,
2013-08-10 08:22:00,58.0,57.0,30.43,ESE,120,0.0,1.0,96,-99.99,,,-99.99,,2013-08-10 15:22:00,
2013-08-10 08:33:00,58.0,57.0,30.43,ESE,120,0.0,1.0,96,-99.99,,,-99.99,,2013-08-10 15:33:00,
2013-08-10 08:43:00,58.0,57.0,30.43,ESE,120,0.0,2.0,96,-99.99,,,-99.99,,2013-08-10 15:43:00,
2013-08-10 08:52:00,58.0,57.0,30.43,ESE,120,0.0,2.0,96,-99.99,,,-99.99,,2013-08-10 15:52:00,
2013-08-10 09:01:00,59.0,58.0,30.43,ESE,120,0.0,1.0,96,-99.99,,,-99.99,,2013-08-10 16:01:00,
2013-08-10 09:22:00,59.0,58.0,30.43,WNW,284,1.0,1.0,96,-99.99,,,-99.99,,2013-08-10 16:22:00,
2013-08-10 09:32:00,59.0,58.0,30.43,WNW,284,1.0,1.0,96,-99.99,,,-99.99,,2013-08-10 16:32:00,
2013-08-10 09:43:00,60.0,59.0,30.43,NNE,30,0.0,2.0,95,-99.99,,,-99.99,,2013-08-10 16:43:00,
2013-08-10 09:53:00,60.0,59.0,30.43,NNE,30,0.0,2.0,95,-99.99,,,-99.99,,2013-08-10 16:53:00,
2013-08-10 10:02:00,60.0,58.0,30.43,East,83,1.0,3.0,94,-99.99,,,-99.99,,2013-08-10 17:02:00,
2013-08-10 10:11:00,60.0,58.0,30.43,East,83,1.0,3.0,94,-99.99,,,-99.99,,2013-08-10 17:11:00,
2013-08-10 10:21:00,60.0,58.0,30.43,East,83,1.0,3.0,94,-99.99,,,-99.99,,2013-08-10 17:21:00,
2013-08-10 10:33:00,60.0,58.0,30.43,East,83,1.0,3.0,94,-99.99,,,-99.99,,2013-08-10 17:33:00,
2013-08-10 11:01:00,60.0,58.0,30.43,SW,234,2.0,0.0,94,-99.99,,,-99.99,,2013-08-10 18:01:00,
2013-08-10 11:43:00,70.0,58.0,30.43,SSW,205,2.0,7.0,66,-99.99,,,-99.99,,2013-08-10 18:43:00,
2013-08-10 11:52:00,70.0,58.0,30.43,SSW,205,2.0,7.0,66,-99.99,,,-99.99,,2013-08-10 18:52:00,
2013-08-10 12:01:00,70.0,59.0,30.43,SSW,213,2.0,10.0,67,-99.99,,,-99.99,,2013-08-10 19:01:00,
2013-08-10 12:11:00,70.0,59.0,30.43,SSW,213,2.0,10.0,67,-99.99,,,-99.99,,2013-08-10 19:11:00,
2013-08-10 12:21:00,70.0,59.0,30.43,SSW,213,2.0,10.0,67,-99.99,,,-99.99,,2013-08-10 19:21:00,
2013-08-10 12:32:00,70.0,59.0,30.43,West,280,2.0,10.0,69,-99.99,,,-99.99,,2013-08-10 19:32:00,
2013-08-10 12:44:00,69.0,58.0,30.42,SW,232,9.0,12.0,69,-99.99,,,-99.99,,2013-08-10 19:44:00,
2013-08-10 13:01:00,69.0,58.0,30.43,SW,220,5.0,13.0,69,-99.99,,,-99.99,,2013-08-10 20:01:00,
2013-08-10 13:11:00,68.0,58.0,30.43,West,268,3.0,13.0,70,-99.99,,,-99.99,,2013-08-10 20:11:00,
2013-08-10 13:22:00,68.0,58.0,30.43,West,268,3.0,13.0,70,-99.99,,,-99.99,,2013-08-10 20:22:00,
2013-08-10 13:43:00,67.0,57.0,30.43,SW,236,9.0,14.0,71,-99.99,,,-99.99,,2013-08-10 20:43:00,
2013-08-10 13:53:00,67.0,57.0,30.43,West,275,7.0,13.0,71,-99.99,,,-99.99,,2013-08-10 20:53:00,
2013-08-10 14:02:00,67.0,57.0,30.43,West,275,7.0,13.0,71,-99.99,,,-99.99,,2013-08-10 21:02:00,
2013-08-10 14:11:00,67.0,57.0,30.43,West,275,7.0,13.0,71,-99.99,,,-99.99,,2013-08-10 21:11:00,
2013-08-10 14:22:00,67.0,58.0,30.43,SSW,213,5.0,17.0,72,-99.99,,,-99.99,,2013-08-10 21:22:00,
2013-08-10 14:42:00,65.0,56.0,30.43,SSW,213,8.0,17.0,74,-99.99,,,-99.99,,2013-08-10 21:42:00,
2013-08-10 14:52:00,65.0,56.0,30.43,SSW,213,8.0,17.0,74,-99.99,,,-99.99,,2013-08-10 21:52:00,
2013-08-10 15:21:00,65.0,58.0,30.44,SW,236,13.0,14.0,77,-99.99,,,-99.99,,2013-08-10 22:21:00,
2013-08-10 15:32:00,65.0,58.0,30.44,SW,236,13.0,14.0,77,-99.99,,,-99.99,,2013-08-10 22:32:00,
2013-08-10 15:43:00,65.0,58.0,30.44,SW,236,13.0,14.0,77,-99.99,,,-99.99,,2013-08-10 22:43:00,
2013-08-10 16:22:00,66.0,57.0,30.43,SW,229,12.0,14.0,74,-99.99,,,-99.99,,2013-08-10 23:22:00,
2013-08-10 16:32:00,66.0,57.0,30.43,SW,229,12.0,14.0,74,-99.99,,,-99.99,,2013-08-10 23:32:00,
2013-08-10 16:53:00,65.0,57.0,30.43,SW,234,10.0,16.0,76,-99.99,,,-99.99,,2013-08-10 23:53:00,
2013-08-10 17:01:00,65.0,57.0,30.43,SW,234,10.0,16.0,76,-99.99,,,-99.99,,2013-08-11 00:01:00,
2013-08-10 17:32:00,64.0,57.0,30.43,SW,219,9.0,14.0,78,-99.99,,,-99.99,,2013-08-11 00:32:00,
2013-08-10 17:42:00,64.0,57.0,30.43,SW,219,9.0,14.0,78,-99.99,,,-99.99,,2013-08-11 00:42:00,
2013-08-10 17:52:00,64.0,57.0,30.43,SW,219,9.0,14.0,78,-99.99,,,-99.99,,2013-08-11 00:52:00,
2013-08-10 18:01:00,62.0,56.0,30.44,SW,234,11.0,14.0,81,-99.99,,,-99.99,,2013-08-11 01:01:00,
2013-08-10 18:11:00,62.0,56.0,30.44,SW,234,11.0,14.0,81,-99.99,,,-99.99,,2013-08-11 01:11:00,
2013-08-10 18:32:00,61.0,56.0,30.43,WSW,239,3.0,11.0,84,-99.99,,,-99.99,,2013-08-11 01:32:00,
2013-08-10 18:43:00,61.0,56.0,30.43,WSW,239,3.0,11.0,84,-99.99,,,-99.99,,2013-08-11 01:43:00,
2013-08-10 19:02:00,59.0,56.0,30.44,SW,232,8.0,12.0,89,-99.99,,,-99.99,,2013-08-11 02:02:00,
2013-08-10 19:32:00,59.0,56.0,30.44,SW,226,3.0,8.0,90,-99.99,,,-99.99,,2013-08-11 02:32:00,
2013-08-10 19:43:00,59.0,56.0,30.44,SW,233,6.0,10.0,91,-99.99,,,-99.99,,2013-08-11 02:43:00,
2013-08-10 19:53:00,59.0,56.0,30.44,SW,233,6.0,10.0,91,-99.99,,,-99.99,,2013-08-11 02:53:00,
2013-08-10 20:02:00,59.0,57.0,30.44,SW,217,8.0,8.0,92,-99.99,,,-99.99,,2013-08-11 03:02:00,
2013-08-10 20:33:00,58.0,56.0,30.44,WSW,239,6.0,7.0,92,-99.99,,,-99.99,,2013-08-11 03:33:00,
2013-08-10 21:01:00,58.0,56.0,30.44,South,189,6.0,0.0,93,-99.99,,,-99.99,,2013-08-11 04:01:00,
2013-08-10 21:12:00,58.0,56.0,30.44,South,189,6.0,0.0,93,-99.99,,,-99.99,,2013-08-11 04:12:00,
2013-08-10 21:32:00,58.0,56.0,30.44,South,189,6.0,0.0,93,-99.99,,,-99.99,,2013-08-11 04:32:00,
2013-08-10 21:43:00,58.0,56.0,30.44,South,189,6.0,0.0,93,-99.99,,,-99.99,,2013-08-11 04:43:00,
2013-08-10 21:53:00,58.0,56.0,30.44,South,189,6.0,0.0,93,-99.99,,,-99.99,,2013-08-11 04:53:00,
2013-08-10 22:02:00,58.0,56.0,30.44,South,189,6.0,0.0,93,-99.99,,,-99.99,,2013-08-11 05:02:00,
2013-08-10 22:12:00,58.0,56.0,30.44,South,189,6.0,0.0,93,-99.99,,,-99.99,,2013-08-11 05:12:00,
2013-08-10 22:33:00,58.0,56.0,30.45,South,189,6.0,0.0,93,-99.99,,,-99.99,,2013-08-11 05:33:00,
2013-08-10 22:43:00,58.0,56.0,30.45,South,189,6.0,0.0,93,-99.99,,,-99.99,,2013-08-11 05:43:00,
2013-08-10 22:54:00,58.0,56.0,30.45,South,189,6.0,0.0,93,-99.99,,,-99.99,,2013-08-11 05:54:00,
2013-08-10 23:02:00,58.0,56.0,30.45,South,189,6.0,0.0,93,-99.99,,,-99.99,,2013-08-11 06:02:00,
2013-08-10 23:12:00,58.0,56.0,30.45,South,189,6.0,0.0,93,-99.99,,,-99.99,,2013-08-11 06:12:00,
2013-08-10 23:49:00,58.0,56.0,30.45,South,189,6.0,0.0,93,-99.99,,,-99.99,,2013-08-11 06:49:00,